User: anonymous   Login
Location: Unspecified
(0.0000°N, 0.0000°E)
Time: 17:16:01
(UTC+02:00)
Language:

ARIANE 5 R/B - Orbit

View from above orbital plane
View from above orbital plane
View from above satellite
View from above satellite

Ground track
Ground track

The orbit data is extracted from the following two-line orbital elements,

1 27510U 02040C   17086.44120238 -.00000106 +00000-0 -16745-3 0  9992
2 27510 004.9055 244.0460 7161516 269.6389 014.7142 02.27196870121027
Epoch (UTC): 27 March 2017 10:35:19
Eccentricity: 0.7161516
inclination: 4.9055°
perigee height: 559 km
apogee height: 35567 km
right ascension of ascending node: 244.0460°
argument of perigee: 269.6389°
revolutions per day: 2.27196870
mean anomaly at epoch: 14.7142°
orbit number at epoch: 12102

The dashed part of the orbit path shows where the satellite is in the earth's shadow,  

DLR